CUTE-1 (CO-55)

Last updated on Fri Jun 19 2026 20:04:29 GMT+0000 (Coordinated Universal Time)

1 27844U 03031E 26170.56610412 .00000202 00000+0 10624-3 0 9992 2 27844 98.6736 179.0951 0009689 171.1603 188.9749 14.24336935192018
UTC large
Height (km)
Speed (km/s)
/
Latitude / Longitude
Inclination (degrees)
Orbital Period (minutes)
Azimuth
Elevation
Range (km)
Doppler Factor

Next 0 passes for location: London (51.5072 / 0.1276)

No passes found over London.
CUTE-1 (CO-55)